Temp
29 20 17 25 32 32 32 31 29 31 31 30 31 30 29 28 28 28 27 26 26 25 25 24 24 24 24 23 22 21 21 20 20 21 22 22 22 22 22 22 21 20 20 19
32 22 25 33 33 32 32 32 24 31 31 30 31 30 30 29 29 28 28 28 27 26 25 25 25 25 24 23 23 22 21 21 20 22 22 22 22 22 21 21 21 20 20 19
28 18 24 34 33 33 23 32 31 26 31 31 31 30 30 30 29 29 28 28 28 27 27 26 26 26 25 25 24 23 22 22 21 21 21 21 21 21 22 22 21 20 20 20
31 27 33 34 31 33 24 33 32 31 30 21 32 21 30 30 30 30 29 29 29 28 28 27 26 26 26 25 24 24 23 22 22 22 22 21 22 23 22 22 21 21 20 20
18 19 30 33 32 33 32 32 33 32 32 32 32 33 31 31 30 30 30 29 29 29 28 28 28 27 27 26 26 25 24 22 22 22 22 21 21 23 23 22 22 22 21 21
32 27 32 34 33 33 32 33 33 32 26 23 33 31 32 32 32 31 31 30 29 29 29 28 28 28 28 27 26 26 24 24 23 22 23 22 21 22 23 22 22 23 22 22
32 32 32 33 33 34 33 33 20 22 28 32 34 32 33 34 34 34 32 30 30 29 29 28 28 28 27 27 27 26 24 23 24 24 23 23 22 21 21 21 22 23 23 23
26 30 34 35 34 30 34 34 29 20 28 25 33 30 33 35 34 33 33 31 30 30 30 29 29 28 28 27 27 26 25 23 23 24 24 24 23 21 21 21 22 23 24 24
33 33 34 34 35 33 22 32 34 31 34 31 35 34 34 34 34 33 33 32 31 30 30 30 29 29 28 27 27 27 26 24 24 23 25 24 24 23 22 22 22 22 22 23
33 32 34 35 34 34 33 25 32 31 28 25 28 33 32 33 33 33 33 33 32 31 30 30 29 29 29 28 28 27 27 26 25 25 23 23 23 24 23 21 22 22 22 22
34 34 34 34 33 34 33 33 32 28 33 31 27 22 34 33 33 33 33 32 32 31 31 30 30 29 29 29 29 28 27 27 26 25 24 23 22 23 24 22 23 22 21 21
34 34 34 34 36 36 35 34 34 32 23 30 32 20 35 34 34 33 32 31 30 31 31 30 30 29 29 29 29 28 28 27 26 25 24 23 22 22 22 22 22 21 22 22
35 33 32 33 36 36 34 35 35 35 33 32 31 32 34 34 32 32 30 29 28 29 30 30 29 27 27 27 28 27 25 25 25 24 23 23 23 23 23 24 23 22 20 20
32 34 33 33 34 36 34 35 35 35 33 33 32 30 33 33 33 32 29 28 27 27 26 26 26 25 26 27 25 24 24 25 24 24 24 24 23 23 24 24 23 22 21 20
33 32 34 35 35 35 35 35 35 34 34 33 30 32 35 34 33 32 30 28 27 27 26 25 24 25 26 25 24 24 24 24 24 24 24 24 23 23 25 24 22 23 22 21
34 32 33 33 34 35 35 35 35 35 35 34 34 34 37 35 33 32 30 29 28 28 28 27 27 26 25 24 24 24 23 22 23 24 23 22 21 21 22 21 23 22 21 20
34 34 33 32 34 34 33 35 35 35 36 35 34 35 35 34 33 32 31 29 28 28 28 27 26 26 26 25 24 23 22 22 21 22 21 20 20 20 20 22 22 21 20 19
33 34 33 32 33 29 35 37 36 36 36 36 36 36 35 35 33 32 31 30 29 28 28 27 27 26 24 24 23 22 22 21 21 21 21 20 20 19 20 19 19 18 18 18
34 34 32 31 32 33 34 36 35 34 34 36 36 36 36 33 33 32 31 30 29 29 28 27 26 25 25 23 22 22 22 20 20 20 20 20 20 19 18 18 18 18 17 17
34 34 33 32 31 30 34 34 30 36 33 36 35 35 36 33 33 33 31 30 29 28 28 27 26 24 23 23 22 22 20 20 19 19 19 19 19 18 18 18 18 17 17 17
32 31 31 31 31 32 35 36 32 32 33 35 35 35 35 34 34 32 30 30 29 28 27 26 25 24 23 23 23 22 21 19 19 19 18 18 18 18 18 18 18 17 18 19
30 30 31 31 30 30 35 35 32 34 35 34 34 33 32 33 33 31 29 29 28 27 26 25 25 24 23 23 22 21 20 19 18 18 18 18 18 19 18 19 19 18 19 19
31 31 32 32 33 34 34 34 34 34 34 33 32 31 31 32 30 30 29 28 27 26 25 26 25 24 23 22 22 20 19 18 18 18 18 18 19 18 19 18 19 18 19 19
31 33 33 33 33 34 34 33 34 34 33 33 32 32 31 31 29 29 28 27 26 26 25 25 24 23 22 21 20 19 19 18 19 18 18 18 18 18 19 20 20 21 21 21
29 27 29 32 33 32 32 32 33 33 32 32 32 31 31 30 29 29 28 27 26 26 25 24 23 22 21 20 20 19 19 19 19 18 19 19 20 20 19 20 21 21 21 20
25 27 28 30 32 32 32 32 32 32 32 31 31 31 31 29 30 28 28 27 26 25 25 24 22 21 20 20 20 19 19 19 19 20 20 21 21 21 21 21 20 21 20 20
Height
1486 1509 1530 1499 1476 1474 1475 1477 1490 1480 1481 1486 1482 1486 1496 1502 1504 1506 1512 1517 1521 1527 1529 1533 1537 1540 1544 1547 1549 1552 1553 1555 1556 1558 1559 1560 1559 1561 1561 1562 1561 1560 1561 1560
1475 1509 1503 1474 1473 1471 1469 1473 1504 1483 1480 1483 1479 1483 1488 1496 1500 1504 1509 1512 1516 1522 1527 1530 1535 1538 1542 1545 1548 1551 1552 1554 1554 1557 1558 1558 1559 1560 1560 1560 1560 1560 1561 1560
1488 1521 1488 1470 1467 1470 1505 1472 1473 1496 1479 1478 1479 1488 1483 1490 1496 1501 1505 1509 1512 1516 1521 1527 1531 1535 1539 1542 1546 1549 1551 1552 1553 1554 1556 1557 1558 1559 1559 1560 1559 1559 1559 1559
1480 1483 1475 1468 1478 1471 1504 1469 1467 1471 1485 1531 1479 1533 1485 1481 1491 1496 1501 1505 1508 1512 1517 1522 1528 1532 1536 1540 1543 1546 1548 1550 1550 1551 1555 1555 1557 1557 1556 1558 1557 1559 1558 1559
1530 1513 1485 1478 1477 1471 1473 1466 1464 1464 1468 1470 1469 1470 1470 1473 1486 1490 1495 1500 1504 1509 1513 1517 1522 1526 1531 1535 1539 1542 1545 1547 1548 1549 1551 1552 1554 1556 1557 1557 1558 1557 1557 1556
1485 1495 1486 1472 1471 1471 1469 1466 1466 1467 1492 1519 1458 1475 1473 1471 1473 1480 1488 1494 1500 1505 1510 1515 1519 1523 1527 1531 1536 1539 1543 1543 1544 1546 1548 1550 1553 1553 1555 1556 1556 1556 1556 1555
1483 1485 1477 1471 1471 1465 1468 1463 1541 1541 1507 1481 1454 1469 1463 1455 1459 1466 1479 1489 1496 1501 1507 1512 1517 1521 1526 1528 1533 1537 1540 1540 1542 1544 1545 1547 1549 1552 1553 1554 1556 1555 1556 1555
1517 1497 1466 1462 1467 1484 1465 1463 1497 1567 1509 1517 1455 1492 1466 1453 1461 1466 1472 1483 1491 1497 1502 1507 1513 1517 1522 1526 1530 1534 1537 1539 1540 1541 1544 1546 1548 1550 1552 1553 1554 1555 1555 1555
1480 1474 1469 1467 1464 1471 1513 1478 1460 1478 1457 1477 1454 1459 1458 1458 1462 1470 1470 1477 1486 1493 1497 1503 1509 1514 1518 1523 1528 1531 1535 1537 1539 1540 1542 1544 1545 1547 1550 1552 1552 1552 1552 1552
1471 1479 1463 1462 1468 1467 1472 1486 1481 1488 1515 1539 1501 1469 1474 1467 1466 1468 1470 1474 1480 1489 1494 1499 1505 1510 1515 1520 1524 1528 1532 1534 1537 1540 1540 1541 1542 1544 1546 1548 1548 1549 1550 1549
1469 1470 1468 1465 1470 1466 1469 1470 1469 1486 1471 1489 1520 1534 1459 1462 1462 1467 1471 1475 1478 1483 1489 1494 1501 1506 1512 1515 1519 1523 1528 1531 1534 1537 1538 1539 1539 1540 1542 1543 1544 1546 1547 1547
1469 1467 1470 1465 1451 1453 1457 1462 1457 1473 1526 1483 1477 1535 1460 1461 1463 1468 1473 1478 1480 1479 1485 1490 1497 1503 1509 1515 1518 1521 1522 1526 1531 1532 1533 1533 1534 1536 1538 1539 1542 1543 1544 1546
1466 1472 1483 1475 1454 1450 1460 1456 1451 1451 1462 1477 1490 1480 1458 1461 1468 1471 1477 1481 1484 1483 1487 1490 1496 1503 1508 1515 1519 1522 1525 1527 1528 1528 1528 1530 1530 1534 1537 1540 1541 1543 1544 1544
1476 1466 1467 1476 1460 1446 1454 1453 1452 1455 1470 1470 1476 1487 1462 1460 1466 1472 1480 1484 1487 1489 1493 1498 1502 1506 1510 1516 1519 1522 1523 1524 1526 1526 1527 1529 1529 1533 1536 1536 1538 1542 1542 1540
1473 1473 1459 1452 1447 1445 1443 1441 1445 1456 1459 1468 1484 1471 1452 1454 1463 1470 1479 1485 1489 1492 1496 1501 1504 1505 1509 1514 1518 1521 1522 1521 1523 1524 1526 1527 1529 1529 1530 1533 1536 1535 1536 1539
1463 1471 1461 1462 1449 1444 1448 1440 1445 1449 1451 1455 1454 1457 1443 1450 1462 1469 1477 1484 1488 1492 1494 1499 1503 1506 1509 1512 1515 1518 1519 1518 1519 1519 1521 1523 1524 1526 1530 1531 1529 1531 1534 1537
1457 1456 1458 1469 1445 1446 1459 1445 1445 1445 1442 1446 1457 1446 1449 1453 1460 1467 1474 1481 1486 1491 1494 1498 1502 1506 1508 1510 1512 1515 1516 1517 1518 1520 1520 1520 1522 1525 1527 1528 1528 1532 1535 1537
1452 1449 1451 1461 1451 1485 1435 1428 1432 1436 1436 1435 1437 1439 1445 1451 1457 1465 1471 1478 1484 1488 1493 1497 1500 1504 1508 1510 1512 1513 1514 1516 1516 1518 1518 1519 1521 1524 1526 1529 1532 1535 1538 1538
1445 1446 1454 1462 1459 1444 1435 1429 1435 1439 1442 1436 1438 1438 1438 1448 1454 1462 1469 1475 1482 1487 1492 1496 1499 1503 1505 1508 1511 1513 1514 1515 1516 1516 1518 1520 1523 1525 1527 1531 1533 1536 1536 1538
1440 1436 1448 1453 1461 1470 1435 1426 1428 1425 1442 1430 1435 1437 1437 1442 1452 1454 1466 1473 1480 1486 1491 1495 1499 1502 1505 1508 1510 1513 1514 1515 1516 1517 1520 1522 1524 1526 1529 1531 1533 1535 1536 1537
1438 1446 1449 1449 1455 1438 1421 1422 1428 1448 1443 1428 1428 1429 1432 1436 1441 1448 1464 1472 1478 1484 1490 1495 1498 1501 1504 1507 1510 1512 1515 1516 1518 1520 1522 1524 1527 1529 1531 1532 1534 1536 1537 1537
1441 1446 1445 1445 1450 1455 1423 1422 1437 1426 1424 1426 1428 1431 1432 1436 1440 1448 1461 1470 1477 1483 1489 1494 1498 1501 1504 1507 1510 1513 1515 1517 1520 1522 1524 1527 1529 1532 1532 1534 1536 1537 1537 1538
1427 1425 1425 1425 1423 1415 1421 1421 1421 1423 1425 1425 1431 1435 1437 1438 1445 1452 1461 1469 1476 1483 1488 1493 1497 1501 1504 1507 1511 1512 1514 1518 1522 1524 1526 1529 1531 1533 1534 1535 1537 1539 1539 1542
1412 1411 1412 1412 1412 1414 1415 1418 1419 1418 1425 1429 1433 1435 1439 1442 1449 1455 1462 1469 1476 1482 1487 1492 1497 1501 1504 1508 1511 1513 1515 1518 1523 1526 1528 1530 1532 1534 1536 1538 1538 1540 1541 1541
1418 1417 1417 1409 1412 1417 1418 1420 1418 1419 1425 1429 1432 1435 1438 1442 1450 1456 1462 1468 1475 1481 1486 1492 1496 1500 1504 1508 1511 1514 1516 1520 1524 1527 1530 1532 1534 1535 1536 1537 1539 1540 1540 1540
1431 1426 1426 1418 1412 1416 1418 1416 1418 1419 1421 1427 1429 1431 1434 1439 1445 1454 1460 1467 1473 1479 1485 1490 1495 1499 1503 1507 1511 1514 1517 1520 1524 1527 1530 1531 1533 1535 1536 1537 1539 1541 1541 1541
Wind_Speed
23 14 12 27 5 8 6 2 11 1 6 6 5 9 10 12 12 14 16 19 18 16 13 20 19 16 17 15 14 11 11 9 8 6 6 5 5 5 4 4 4 4 2 3
9 8 27 5 3 4 5 8 12 7 7 8 10 9 13 13 13 14 15 16 19 20 17 22 22 20 18 15 13 12 11 9 8 6 7 6 5 5 5 4 4 3 2 3
4 12 36 7 7 9 22 4 4 15 9 11 7 9 16 14 14 14 16 17 18 20 23 23 21 20 17 15 14 12 11 11 10 10 8 7 6 6 4 5 6 2 2 2
9 18 8 9 11 15 15 6 3 4 1 4 12 5 14 17 15 15 19 19 21 23 22 23 22 20 19 17 14 13 11 11 9 9 10 10 8 8 7 3 3 3 3 2
7 21 21 9 9 10 9 6 5 8 12 2 8 4 11 16 17 17 20 23 22 23 23 21 21 20 19 17 15 13 12 12 12 12 12 11 10 7 5 5 6 2 5 5
9 28 20 8 6 5 8 8 6 7 12 6 5 6 7 13 15 18 22 23 23 22 21 21 19 18 19 18 15 13 12 11 11 12 12 13 11 11 7 6 6 4 3 6
12 15 19 2 12 7 9 14 6 8 4 1 5 7 10 10 9 15 21 23 23 23 23 23 22 20 19 17 15 14 13 12 10 11 12 12 13 12 10 8 5 6 5 6
11 16 12 9 10 10 10 12 5 5 5 8 8 9 8 9 7 4 19 24 24 23 24 24 23 22 20 18 17 15 14 13 13 11 12 12 12 11 10 10 9 7 7 5
16 8 6 4 5 3 13 11 17 3 13 11 9 15 6 9 8 7 7 20 23 24 23 22 22 22 21 20 19 17 15 13 14 13 13 13 12 12 11 10 10 10 9 8
17 12 10 8 5 11 9 16 9 7 2 2 8 14 9 9 8 6 6 10 20 24 24 23 21 21 22 21 20 17 16 14 13 14 14 14 14 13 13 12 13 13 11 14
13 14 7 5 9 12 8 11 6 10 8 1 3 10 7 8 7 5 5 6 13 21 26 23 22 21 22 21 20 19 15 13 12 12 14 15 16 16 14 14 14 14 14 14
12 15 11 14 11 7 9 12 15 3 5 16 3 13 5 8 7 5 5 2 5 15 22 23 24 20 19 18 14 11 6 14 11 13 16 18 17 17 17 16 14 14 15 14
11 10 12 15 13 14 9 14 13 10 12 2 7 6 2 10 7 5 8 5 4 9 15 16 17 17 18 10 12 13 10 8 9 13 15 16 16 16 14 12 12 12 11 11
8 15 15 12 12 11 12 16 15 8 7 4 6 6 6 8 8 9 9 8 9 11 14 16 16 23 23 18 15 13 13 10 10 11 15 17 16 15 13 16 11 7 13 12
9 18 17 16 16 17 18 8 10 9 10 9 4 20 8 8 8 12 13 13 14 16 19 20 23 24 21 17 13 11 10 10 11 13 15 19 14 15 16 7 9 11 18 9
14 16 20 18 15 14 22 12 10 14 9 12 12 11 12 14 11 14 17 16 17 16 17 17 19 16 17 16 14 11 9 7 9 10 16 18 19 17 9 8 8 16 13 13
15 17 16 19 15 15 19 15 15 17 14 13 11 4 5 7 12 16 20 21 19 18 17 18 17 15 14 13 13 12 9 6 7 10 12 12 13 12 13 11 12 14 7 2
22 15 13 14 11 16 9 10 18 16 11 10 10 6 11 6 11 18 21 23 22 20 19 17 16 14 12 10 10 9 8 8 10 12 13 13 11 12 11 12 13 11 9 8
20 17 15 13 16 16 15 15 8 14 14 15 15 14 10 13 11 19 23 24 24 22 19 17 14 12 12 10 10 10 10 11 12 12 14 14 14 14 14 13 13 11 10 8
21 18 13 16 18 20 16 6 36 21 13 9 13 17 20 17 12 12 25 26 24 22 19 16 15 13 13 12 12 12 9 12 12 14 15 15 14 14 14 13 12 10 8 8
17 14 18 14 18 21 16 17 26 12 8 13 14 12 15 12 19 27 28 26 25 23 21 18 16 15 14 13 12 13 12 12 12 13 14 14 15 14 14 13 12 10 8 7
18 16 14 16 20 23 23 14 10 9 13 4 9 5 9 17 16 30 31 29 27 25 23 20 17 16 15 14 15 16 15 15 14 15 16 16 15 13 13 13 10 8 8 7
22 19 15 16 12 15 22 27 17 17 8 2 2 6 15 19 21 29 32 31 28 26 24 20 18 18 17 16 16 17 17 17 16 15 16 15 14 13 12 9 8 6 6 3
21 26 19 18 15 15 12 19 17 8 3 8 7 11 20 18 21 26 29 30 28 27 24 21 20 20 18 18 16 17 17 17 16 16 15 14 14 12 10 8 4 3 3 2
14 12 15 15 15 17 17 22 22 16 10 10 11 15 20 20 22 27 30 30 29 27 24 22 21 20 19 19 18 17 17 18 17 16 14 13 11 10 8 3 6 3 1 5
21 16 8 13 15 19 22 24 24 22 16 14 17 22 24 23 29 31 31 30 30 28 26 24 23 22 21 19 19 17 17 18 17 15 13 13 10 8 9 8 9 5 1 2
Wind_Direction
255 78 247 268 1 346 289 319 110 9 118 245 227 141 164 173 189 171 176 182 180 177 193 190 191 184 188 188 184 184 195 198 203 218 216 232 234 225 230 243 259 305 326 316
237 121 244 352 278 261 232 246 341 52 153 217 157 220 159 180 186 178 189 184 178 168 176 169 181 187 190 190 193 199 207 216 217 222 218 225 223 226 222 218 261 288 256 275
66 219 271 285 342 343 325 353 199 176 188 207 186 210 162 180 183 182 190 187 176 167 167 174 182 189 194 195 202 209 216 221 226 218 223 225 218 234 216 231 269 200 269 268
303 215 290 324 327 339 168 4 307 256 166 311 206 292 197 172 187 189 194 193 189 181 187 185 192 197 201 203 207 215 217 215 227 221 211 212 210 219 209 254 199 273 284 258
15 329 295 332 13 337 11 329 248 249 247 43 187 237 162 175 188 193 198 193 202 194 196 199 195 192 199 197 201 205 214 218 209 229 199 227 204 224 237 234 259 284 284 311
258 229 278 326 333 312 302 263 225 219 43 266 122 105 158 173 196 191 194 197 199 198 197 195 197 194 191 191 196 197 202 216 206 215 209 206 213 206 217 224 243 263 272 292
233 254 265 219 279 208 248 253 0 334 128 111 58 153 74 116 171 185 188 196 195 197 197 196 196 197 198 196 198 197 200 203 204 207 209 209 207 211 219 215 228 258 250 242
254 263 252 198 264 199 313 320 138 252 182 242 144 121 70 103 111 173 172 188 195 199 195 197 196 197 195 197 195 194 196 199 203 208 207 208 211 212 219 228 218 236 253 275
281 227 217 243 282 303 296 313 341 78 288 13 97 100 105 107 127 155 210 177 193 198 203 194 196 198 196 196 192 193 192 199 202 206 208 207 209 201 215 218 238 233 242 247
266 283 186 150 253 242 275 176 316 21 230 125 321 85 92 153 165 172 194 192 193 200 203 192 199 195 192 191 192 194 197 204 209 208 217 213 215 215 212 220 222 223 228 238
256 266 271 137 238 256 211 217 178 194 256 179 89 313 33 117 122 161 178 208 214 205 201 199 194 194 193 195 194 194 201 209 205 214 216 211 213 216 220 225 234 237 236 242
227 286 278 241 217 244 286 298 267 205 357 290 225 203 101 77 118 120 107 153 225 217 200 203 190 193 186 192 204 206 200 188 205 212 209 212 211 213 217 222 228 236 247 250
269 232 255 259 229 184 226 259 260 267 173 254 299 88 48 109 121 122 130 139 170 184 191 194 169 157 163 174 204 202 214 205 217 214 208 205 209 211 209 222 227 242 251 263
296 272 265 260 278 302 223 209 243 273 278 239 279 269 153 127 153 146 141 149 152 163 169 177 173 169 169 204 200 203 210 204 220 212 208 202 200 199 198 211 213 223 251 237
246 269 270 268 269 282 275 213 202 212 274 271 156 273 260 147 176 158 156 160 156 156 166 172 173 169 178 188 199 203 208 201 214 206 205 209 191 194 200 205 276 239 246 230
233 257 278 280 293 263 263 237 249 258 245 266 286 283 287 129 159 157 163 170 169 171 165 170 176 177 184 189 191 195 208 204 209 212 209 203 196 194 195 207 253 252 235 267
230 253 254 271 261 231 246 246 254 267 263 263 252 233 84 143 170 176 169 171 171 173 168 169 172 178 181 188 189 192 194 189 181 182 188 192 189 196 188 221 247 215 214 161
265 256 258 263 270 298 249 248 236 241 253 274 273 191 178 190 195 180 177 171 171 170 170 166 167 169 175 181 180 177 172 171 171 166 167 170 169 169 156 151 145 143 145 138
251 246 263 256 262 242 252 248 224 240 250 251 257 265 210 157 200 175 179 175 172 169 168 170 166 166 160 163 157 156 155 158 141 140 141 138 141 138 133 132 132 137 130 131
240 240 239 255 262 255 250 288 335 294 237 244 261 260 262 157 202 172 178 175 172 169 168 166 161 157 152 152 150 149 148 156 157 142 138 136 144 137 131 131 131 126 118 111
217 239 250 235 254 265 271 283 183 243 274 293 282 298 291 184 212 164 171 172 172 168 166 164 157 154 152 148 146 142 140 135 136 136 136 135 131 133 133 131 123 112 138 129
211 231 228 245 251 249 254 248 229 297 294 292 304 278 227 195 188 155 168 171 170 167 164 162 157 154 151 154 150 144 140 138 140 138 136 137 132 130 135 130 121 113 94 110
250 228 225 225 245 229 244 271 236 243 286 48 201 175 175 159 144 159 169 171 169 169 164 163 160 155 155 153 154 146 140 142 143 141 140 135 137 142 134 130 118 99 93 131
258 241 254 256 257 277 278 256 232 246 234 251 214 168 177 155 168 168 170 170 170 169 164 163 161 158 155 156 155 151 146 147 150 152 150 146 147 144 137 121 117 147 150 161
291 333 306 251 250 273 263 253 263 250 219 235 196 183 184 170 176 177 173 173 172 169 165 166 163 161 159 157 157 157 155 155 160 156 155 152 156 142 161 148 158 108 204 188
276 276 264 244 234 237 248 250 241 244 213 221 213 200 196 184 186 181 176 176 172 169 166 165 166 165 162 161 162 163 161 164 163 161 166 164 158 159 173 169 171 172 153 146